Tracking 19489 objects as of 22-Jan-2019
HD Live streaming from Space Station
objects crossing your sky now

CAT 3

Track CAT 3 now!
10-day predictions
CAT 3 is classified as:


NORAD ID: 12546
Int'l Code: 1981-057C
Perigee: 197.2 km
Apogee: 20,790.1 km
Inclination: 10.2 °
Period: 363.3 minutes
Semi major axis: 16864 km
RCS: 1.9927 m2 (large)
Launch date: June 19, 1981
Source: European Space Agency (ESA)
Launch site: FRENCH GUIANA (FRGUI)
aabbcc
Your satellite tracking list
Your tracking list is empty




NASA's NSSDC Master Catalog

Two Line Element Set (TLE):
1 12546U 81057C   19018.52505811  .00021599  60928-6  56582-3 0  9991
2 12546  10.1900 129.2122 6105346 348.0733   2.2617  3.96403751298727
Source of the keplerian elements: AFSPC